| time (UTC) | temp F | wind direction | speed MPH | gust MPH | rain 1hr in | rain 24hr in | rain mn in | humidity % | barometer mb |
| 20260510021021 | 48 | 193 | 0.0 | 0.0 | 0.00 | 0.28 | 0.28 | 99 | 1010.6 |
| 20260510020515 | 48 | 194 | 0.0 | 0.0 | 0.00 | 0.28 | 0.28 | 99 | 1010.7 |
| 20260510020011 | 48 | 193 | 0.0 | 0.0 | 0.00 | 0.28 | 0.28 | 99 | 1010.7 |
| 20260510015506 | 48 | 194 | 0.0 | 0.0 | 0.00 | 0.28 | 0.28 | 99 | 1010.6 |
| 20260510015002 | 48 | 194 | 0.0 | 0.0 | 0.00 | 0.28 | 0.28 | 99 | 1010.4 |
| 20260510014459 | 49 | 194 | 0.0 | 0.0 | 0.00 | 0.28 | 0.28 | 99 | 1010.3 |
| 20260510013956 | 49 | 192 | 0.0 | 0.0 | 0.00 | 0.28 | 0.28 | 99 | 1010.2 |
| 20260510013450 | 49 | 193 | 0.0 | 0.0 | 0.00 | 0.28 | 0.28 | 99 | 1010.6 |
| 20260510012947 | 49 | 196 | 0.0 | 0.0 | 0.00 | 0.28 | 0.28 | 99 | 1010.5 |
| 20260510012441 | 49 | 194 | 0.0 | 0.0 | 0.00 | 0.28 | 0.28 | 99 | 1010.4 |
| 20260510011936 | 49 | 194 | 0.0 | 0.0 | 0.00 | 0.28 | 0.28 | 99 | 1010.4 |
| 20260510011432 | 49 | 194 | 0.0 | 0.0 | 0.00 | 0.28 | 0.28 | 99 | 1010.2 |
| 20260510010928 | 50 | 194 | 0.0 | 0.0 | 0.00 | 0.28 | 0.28 | 99 | 1010.2 |
| 20260510010426 | 50 | 194 | 0.0 | 0.0 | 0.00 | 0.28 | 0.28 | 99 | 1010.2 |
| 20260510005922 | 50 | 194 | 0.0 | 0.0 | 0.00 | 0.28 | 0.28 | 99 | 1010.3 |
| 20260510005418 | 50 | 194 | 0.0 | 0.0 | 0.00 | 0.28 | 0.28 | 99 | 1010.1 |
| 20260510004915 | 50 | 194 | 0.0 | 0.0 | 0.00 | 0.28 | 0.28 | 99 | 1009.9 |
| 20260510004413 | 51 | 194 | 0.0 | 0.0 | 0.00 | 0.28 | 0.28 | 99 | 1010.1 |
| 20260510003911 | 51 | 194 | 0.0 | 0.0 | 0.00 | 0.28 | 0.28 | 99 | 1010.0 |
| 20260510003408 | 51 | 194 | 0.0 | 0.0 | 0.00 | 0.28 | 0.28 | 98 | 1009.7 |
| 20260510002907 | 51 | 194 | 0.0 | 0.0 | 0.00 | 0.28 | 0.28 | 98 | 1009.7 |
| 20260510002404 | 52 | 194 | 0.0 | 0.0 | 0.00 | 0.28 | 0.28 | 98 | 1009.7 |
| 20260510001900 | 52 | 194 | 0.0 | 0.0 | 0.00 | 0.28 | 0.28 | 97 | 1009.7 |
| 20260510001358 | 52 | 194 | 0.0 | 0.0 | 0.00 | 0.28 | 0.28 | 97 | 1009.7 |
| 20260510000854 | 52 | 194 | 0.0 | 0.0 | 0.00 | 0.28 | 0.28 | 96 | 1009.7 |
| 20260510000351 | 53 | 194 | 0.0 | 0.0 | 0.00 | 0.28 | 0.28 | 96 | 1009.4 |
| 20260509235848 | 53 | 194 | 0.0 | 0.0 | 0.00 | 0.28 | 0.28 | 95 | 1009.6 |
| 20260509235344 | 54 | 194 | 0.0 | 0.0 | 0.00 | 0.28 | 0.28 | 95 | 1009.4 |
| 20260509234841 | 54 | 194 | 0.0 | 0.0 | 0.00 | 0.28 | 0.28 | 94 | 1009.2 |
| 20260509234338 | 54 | 194 | 0.0 | 0.0 | 0.00 | 0.28 | 0.28 | 93 | 1009.3 |
| 20260509233836 | 55 | 194 | 0.0 | 0.0 | 0.00 | 0.28 | 0.28 | 92 | 1009.2 |
| 20260509233333 | 55 | 194 | 0.0 | 0.0 | 0.00 | 0.28 | 0.28 | 92 | 1009.4 |
| 20260509232829 | 56 | 194 | 0.0 | 0.0 | 0.00 | 0.28 | 0.28 | 91 | 1009.4 |
| 20260509232327 | 56 | 194 | 0.0 | 0.0 | 0.00 | 0.28 | 0.28 | 90 | 1009.4 |
| 20260509231822 | 57 | 194 | 0.0 | 0.0 | 0.00 | 0.28 | 0.28 | 89 | 1009.4 |
| 20260509231319 | 57 | 194 | 0.0 | 0.0 | 0.00 | 0.28 | 0.28 | 89 | 1009.1 |
| 20260509230817 | 58 | 194 | 0.0 | 0.0 | 0.00 | 0.28 | 0.28 | 88 | 1009.2 |
| 20260509230314 | 58 | 194 | 0.0 | 0.0 | 0.00 | 0.28 | 0.28 | 86 | 1009.2 |
| 20260509225809 | 59 | 207 | 1.0 | 1.0 | 0.00 | 0.28 | 0.28 | 85 | 1009.2 |
| 20260509225306 | 59 | 258 | 1.0 | 1.0 | 0.00 | 0.28 | 0.28 | 84 | 1009.3 |
| 20260509224802 | 60 | 279 | 0.0 | 0.0 | 0.00 | 0.28 | 0.28 | 80 | 1009.5 |
| 20260509224259 | 61 | 260 | 0.0 | 0.0 | 0.00 | 0.28 | 0.28 | 80 | 1009.3 |
| 20260509223755 | 60 | 304 | 0.0 | 1.0 | 0.00 | 0.28 | 0.28 | 82 | 1009.5 |
| 20260509223253 | 60 | 245 | 1.0 | 1.0 | 0.00 | 0.28 | 0.28 | 80 | 1009.3 |
| 20260509222749 | 60 | 324 | 0.0 | 0.0 | 0.00 | 0.28 | 0.28 | 82 | 1009.3 |
| 20260509222245 | 61 | 243 | 0.0 | 0.0 | 0.00 | 0.28 | 0.28 | 81 | 1009.1 |
| 20260509221740 | 60 | 233 | 1.0 | 1.0 | 0.00 | 0.28 | 0.28 | 80 | 1009.3 |
| 20260509221237 | 60 | 266 | 1.0 | 1.0 | 0.00 | 0.28 | 0.28 | 81 | 1009.5 |
| 20260509220733 | 59 | 305 | 2.0 | 2.0 | 0.00 | 0.28 | 0.28 | 83 | 1009.5 |
| 20260509220230 | 59 | 271 | 0.0 | 0.0 | 0.00 | 0.28 | 0.28 | 86 | 1009.5 |
| 20260509215725 | 59 | 278 | 2.0 | 2.0 | 0.00 | 0.28 | 0.28 | 85 | 1009.5 |
| 20260509215222 | 59 | 267 | 1.0 | 1.0 | 0.00 | 0.28 | 0.28 | 88 | 1009.3 |
| 20260509214719 | 58 | 267 | 1.0 | 1.0 | 0.00 | 0.28 | 0.28 | 89 | 1009.4 |
| 20260509214216 | 57 | 276 | 1.0 | 1.0 | 0.00 | 0.28 | 0.28 | 90 | 1009.5 |
| 20260509213713 | 57 | 187 | 1.0 | 2.0 | 0.00 | 0.28 | 0.28 | 89 | 1009.5 |
| 20260509213208 | 58 | 54 | 0.0 | 0.0 | 0.00 | 0.28 | 0.28 | 92 | 1009.4 |
| 20260509212706 | 57 | 54 | 0.0 | 0.0 | 0.00 | 0.28 | 0.28 | 92 | 1009.5 |
| 20260509212203 | 58 | 94 | 1.0 | 1.0 | 0.00 | 0.28 | 0.28 | 90 | 1009.6 |
| 20260509211659 | 57 | 166 | 1.0 | 1.0 | 0.00 | 0.28 | 0.28 | 89 | 1009.7 |
| 20260509211155 | 58 | 58 | 0.0 | 0.0 | 0.00 | 0.28 | 0.28 | 91 | 1009.7 |
| 20260509210652 | 57 | 259 | 0.0 | 0.0 | 0.00 | 0.28 | 0.28 | 92 | 1009.7 |
| 20260509210150 | 57 | 272 | 0.0 | 0.0 | 0.00 | 0.28 | 0.28 | 92 | 1009.6 |
| 20260509205645 | 57 | 304 | 0.0 | 0.0 | 0.00 | 0.28 | 0.28 | 92 | 1009.6 |
| 20260509205144 | 56 | 137 | 0.0 | 0.0 | 0.00 | 0.28 | 0.28 | 92 | 1009.7 |
| 20260509204641 | 57 | 336 | 1.0 | 1.0 | 0.00 | 0.28 | 0.28 | 92 | 1009.6 |
| 20260509204137 | 57 | 250 | 0.0 | 1.0 | 0.00 | 0.28 | 0.28 | 93 | 1009.7 |
| 20260509203633 | 56 | 160 | 0.0 | 1.0 | 0.00 | 0.28 | 0.28 | 93 | 1009.8 |
| 20260509203131 | 56 | 287 | 1.0 | 2.0 | 0.00 | 0.28 | 0.28 | 93 | 1009.9 |
| 20260509202626 | 56 | 218 | 0.0 | 1.0 | 0.00 | 0.28 | 0.28 | 94 | 1010.0 |
| 20260509202121 | 56 | 5 | 0.0 | 0.0 | 0.00 | 0.28 | 0.28 | 94 | 1010.0 |
| 20260509201616 | 56 | 206 | 1.0 | 1.0 | 0.00 | 0.28 | 0.28 | 95 | 1010.1 |
| 20260509201114 | 56 | 252 | 1.0 | 1.0 | 0.00 | 0.28 | 0.28 | 94 | 1010.2 |
| 20260509200609 | 56 | 184 | 0.0 | 1.0 | 0.00 | 0.28 | 0.28 | 94 | 1010.1 |
| 20260509200105 | 56 | 304 | 1.0 | 2.0 | 0.00 | 0.28 | 0.28 | 95 | 1010.3 |
| 20260509195601 | 56 | 272 | 2.0 | 2.0 | 0.00 | 0.28 | 0.28 | 95 | 1010.4 |
| 20260509195056 | 56 | 64 | 0.0 | 0.0 | 0.00 | 0.28 | 0.28 | 95 | 1010.3 |
| 20260509194555 | 56 | 162 | 0.0 | 1.0 | 0.00 | 0.28 | 0.28 | 94 | 1010.6 |
| 20260509194053 | 55 | 246 | 1.0 | 1.0 | 0.00 | 0.28 | 0.28 | 94 | 1010.5 |
| 20260509193548 | 55 | 358 | 1.0 | 2.0 | 0.00 | 0.28 | 0.28 | 94 | 1010.5 |
| 20260509193045 | 56 | 314 | 1.0 | 1.0 | 0.00 | 0.28 | 0.28 | 95 | 1010.4 |
| 20260509192542 | 56 | 16 | 0.0 | 1.0 | 0.00 | 0.28 | 0.28 | 94 | 1010.3 |
| 20260509192037 | 56 | 211 | 2.0 | 2.0 | 0.00 | 0.28 | 0.28 | 95 | 1010.4 |
| 20260509191531 | 55 | 321 | 3.0 | 3.0 | 0.00 | 0.28 | 0.28 | 96 | 1010.3 |
| 20260509191027 | 55 | 106 | 0.0 | 0.0 | 0.00 | 0.28 | 0.28 | 97 | 1010.4 |
| 20260509190525 | 54 | 90 | 1.0 | 2.0 | 0.00 | 0.28 | 0.28 | 97 | 1010.5 |
| 20260509190023 | 55 | 229 | 1.0 | 1.0 | 0.00 | 0.28 | 0.28 | 97 | 1011.0 |
| 20260509185520 | 54 | 206 | 0.0 | 0.0 | 0.00 | 0.28 | 0.28 | 99 | 1010.8 |
| 20260509185016 | 54 | 206 | 0.0 | 0.0 | 0.00 | 0.28 | 0.28 | 99 | 1010.6 |
| 20260509184514 | 54 | 205 | 0.0 | 1.0 | 0.00 | 0.28 | 0.28 | 98 | 1011.2 |
| 20260509184010 | 54 | 206 | 0.0 | 0.0 | 0.00 | 0.28 | 0.28 | 98 | 1011.0 |
| 20260509183505 | 53 | 205 | 0.0 | 0.0 | 0.07 | 0.28 | 0.28 | 98 | 1011.0 |
| 20260509183002 | 53 | 206 | 0.0 | 0.0 | 0.07 | 0.28 | 0.28 | 98 | 1011.3 |
| 20260509182458 | 53 | 151 | 0.0 | 1.0 | 0.00 | 0.27 | 0.27 | 98 | 1011.3 |
| 20260509181955 | 53 | 197 | 1.0 | 1.0 | 0.05 | 0.27 | 0.27 | 98 | 1011.3 |
| 20260509181453 | 53 | 148 | 0.0 | 0.0 | 0.05 | 0.27 | 0.27 | 98 | 1011.2 |
| 20260509180950 | 53 | 179 | 0.0 | 1.0 | 0.05 | 0.27 | 0.27 | 98 | 1011.3 |
| 20260509180446 | 53 | 181 | 1.0 | 2.0 | 0.00 | 0.26 | 0.26 | 99 | 1011.2 |
| 20260509175943 | 53 | 346 | 0.0 | 0.0 | 0.00 | 0.26 | 0.26 | 99 | 1011.1 |
| 20260509175439 | 53 | 347 | 0.0 | 0.0 | 0.07 | 0.26 | 0.26 | 99 | 1011.2 |
| 20260509174936 | 53 | 347 | 0.0 | 0.0 | 0.12 | 0.26 | 0.26 | 99 | 1011.0 |
| 20260509174432 | 53 | 346 | 1.0 | 1.0 | 0.05 | 0.25 | 0.25 | 98 | 1011.4 |
| 20260509173927 | 53 | 348 | 0.0 | 0.0 | 0.07 | 0.24 | 0.24 | 98 | 1011.2 |
| 20260509173427 | 53 | 347 | 0.0 | 0.0 | 0.12 | 0.24 | 0.24 | 98 | 1011.4 |
| 20260509172924 | 53 | 347 | 0.0 | 0.0 | 0.12 | 0.23 | 0.23 | 98 | 1011.1 |
| 20260509172421 | 53 | 347 | 0.0 | 0.0 | 0.12 | 0.22 | 0.22 | 98 | 1011.3 |
| 20260509171917 | 53 | 346 | 0.0 | 0.0 | 0.17 | 0.21 | 0.21 | 98 | 1011.4 |
| 20260509171413 | 53 | 347 | 0.0 | 0.0 | 0.12 | 0.20 | 0.20 | 98 | 1011.2 |
| 20260509170909 | 53 | 347 | 0.0 | 0.0 | 0.12 | 0.19 | 0.19 | 98 | 1011.3 |
| 20260509170405 | 53 | 16 | 0.0 | 0.0 | 0.07 | 0.17 | 0.17 | 98 | 1011.3 |
| 20260509165901 | 53 | 17 | 0.0 | 0.0 | 0.12 | 0.17 | 0.17 | 98 | 1011.5 |
| 20260509165355 | 53 | 17 | 0.0 | 0.0 | 0.17 | 0.16 | 0.16 | 97 | 1011.3 |
| 20260509164851 | 53 | 17 | 0.0 | 0.0 | 0.19 | 0.15 | 0.15 | 97 | 1011.2 |
| 20260509164347 | 53 | 18 | 0.0 | 0.0 | 0.19 | 0.13 | 0.13 | 97 | 1011.6 |
| 20260509163843 | 53 | 19 | 1.0 | 1.0 | 0.24 | 0.12 | 0.12 | 96 | 1011.7 |
| 20260509163340 | 54 | 15 | 1.0 | 1.0 | 0.24 | 0.10 | 0.10 | 95 | 1011.6 |
| 20260509162839 | 54 | 14 | 0.0 | 0.0 | 0.17 | 0.08 | 0.08 | 95 | 1011.9 |
| 20260509162332 | 54 | 262 | 0.0 | 0.0 | 0.05 | 0.06 | 0.06 | 95 | 1011.9 |
| 20260509161829 | 54 | 314 | 0.0 | 0.0 | 0.07 | 0.05 | 0.05 | 94 | 1011.9 |
| 20260509161325 | 54 | 208 | 0.0 | 0.0 | 0.14 | 0.05 | 0.05 | 94 | 1011.8 |
| 20260509160821 | 54 | 208 | 0.0 | 0.0 | 0.07 | 0.04 | 0.04 | 94 | 1011.9 |
| 20260509160317 | 54 | 208 | 0.0 | 0.0 | 0.00 | 0.03 | 0.03 | 93 | 1011.8 |
| 20260509155812 | 54 | 210 | 2.0 | 3.0 | 0.05 | 0.03 | 0.03 | 91 | 1011.9 |
| 20260509155309 | 55 | 200 | 0.0 | 1.0 | 0.05 | 0.03 | 0.03 | 91 | 1012.0 |
| 20260509154805 | 55 | 238 | 1.0 | 1.0 | 0.00 | 0.02 | 0.02 | 90 | 1011.7 |
| 20260509154302 | 55 | 171 | 0.0 | 1.0 | 0.07 | 0.02 | 0.02 | 90 | 1011.7 |
| 20260509153759 | 56 | 228 | 2.0 | 3.0 | 0.07 | 0.02 | 0.02 | 88 | 1011.9 |
| 20260509153255 | 56 | 198 | 0.0 | 0.0 | 0.00 | 0.01 | 0.01 | 88 | 1012.1 |
| 20260509152752 | 56 | 197 | 1.0 | 2.0 | 0.00 | 0.01 | 0.01 | 89 | 1012.0 |
| 20260509152248 | 56 | 95 | 0.0 | 1.0 | 0.00 | 0.01 | 0.01 | 89 | 1012.0 |
| 20260509151745 | 56 | 239 | 1.0 | 1.0 | 0.00 | 0.01 | 0.01 | 90 | 1012.0 |
| 20260509151242 | 56 | 238 | 0.0 | 0.0 | 0.00 | 0.01 | 0.01 | 89 | 1011.8 |
| 20260509150740 | 55 | 299 | 0.0 | 0.0 | 0.00 | 0.01 | 0.01 | 90 | 1011.9 |
| 20260509150238 | 55 | 191 | 0.0 | 0.0 | 0.00 | 0.01 | 0.01 | 93 | 1012.0 |
| 20260509145735 | 55 | 120 | 0.0 | 0.0 | 0.00 | 0.01 | 0.01 | 92 | 1011.9 |
| 20260509145234 | 54 | 119 | 0.0 | 0.0 | 0.00 | 0.01 | 0.01 | 92 | 1011.9 |
| 20260509144731 | 55 | 119 | 0.0 | 0.0 | 0.00 | 0.01 | 0.01 | 92 | 1011.9 |
| 20260509144228 | 55 | 120 | 0.0 | 0.0 | 0.00 | 0.01 | 0.01 | 91 | 1011.7 |
| 20260509143725 | 55 | 119 | 0.0 | 0.0 | 0.05 | 0.01 | 0.01 | 88 | 1011.3 |
| 20260509143223 | 56 | 119 | 0.0 | 0.0 | 0.05 | 0.01 | 0.01 | 84 | 1011.3 |
| 20260509142718 | 56 | 118 | 0.0 | 0.0 | 0.00 | 0.00 | 0.00 | 84 | 1011.5 |
| 20260509142215 | 56 | 117 | 0.0 | 0.0 | 0.00 | 0.00 | 0.00 | 83 | 1011.3 |
| 20260509141711 | 55 | 175 | 0.0 | 0.0 | 0.00 | 0.00 | 0.00 | 84 | 1011.3 |
| 20260509141208 | 55 | 178 | 0.0 | 0.0 | 0.00 | 0.00 | 0.00 | 88 | 1011.3 |
| 20260509140704 | 54 | 178 | 0.0 | 0.0 | 0.00 | 0.00 | 0.00 | 90 | 1011.2 |
| 20260509140202 | 54 | 177 | 0.0 | 0.0 | 0.00 | 0.00 | 0.00 | 91 | 1011.5 |
| 20260509135659 | 53 | 178 | 0.0 | 0.0 | 0.00 | 0.00 | 0.00 | 91 | 1011.3 |
| 20260509135157 | 53 | 178 | 0.0 | 0.0 | 0.00 | 0.00 | 0.00 | 92 | 1011.6 |
| 20260509134653 | 53 | 178 | 0.0 | 0.0 | 0.00 | 0.00 | 0.00 | 93 | 1011.5 |
| 20260509134151 | 53 | 177 | 0.0 | 0.0 | 0.00 | 0.00 | 0.00 | 93 | 1011.4 |
| 20260509133648 | 53 | 178 | 0.0 | 0.0 | 0.00 | 0.00 | 0.00 | 93 | 1011.6 |
| 20260509133145 | 53 | 177 | 0.0 | 0.0 | 0.00 | 0.00 | 0.00 | 93 | 1011.7 |
| 20260509132643 | 53 | 177 | 0.0 | 0.0 | 0.00 | 0.00 | 0.00 | 93 | 1011.6 |
| 20260509132142 | 53 | 176 | 0.0 | 0.0 | 0.00 | 0.00 | 0.00 | 94 | 1011.6 |
| 20260509131637 | 52 | 176 | 0.0 | 0.0 | 0.00 | 0.00 | 0.00 | 93 | 1011.6 |
| 20260509131135 | 52 | 176 | 0.0 | 0.0 | 0.00 | 0.00 | 0.00 | 93 | 1011.2 |
| 20260509130630 | 53 | 175 | 0.0 | 0.0 | 0.00 | 0.00 | 0.00 | 93 | 1011.2 |
| 20260509130127 | 52 | 176 | 0.0 | 0.0 | 0.00 | 0.00 | 0.00 | 94 | 1011.1 |
| 20260509125623 | 52 | 176 | 0.0 | 0.0 | 0.00 | 0.00 | 0.00 | 94 | 1011.0 |
| 20260509125120 | 52 | 176 | 0.0 | 0.0 | 0.00 | 0.00 | 0.00 | 94 | 1011.2 |
| 20260509124616 | 52 | 175 | 0.0 | 0.0 | 0.00 | 0.00 | 0.00 | 94 | 1011.2 |
| 20260509124114 | 51 | 176 | 0.0 | 0.0 | 0.00 | 0.00 | 0.00 | 93 | 1011.2 |
| 20260509123612 | 51 | 176 | 0.0 | 0.0 | 0.00 | 0.00 | 0.00 | 92 | 1011.3 |
| 20260509123108 | 51 | 174 | 0.0 | 0.0 | 0.00 | 0.00 | 0.00 | 92 | 1011.3 |
| 20260509122604 | 51 | 139 | 0.0 | 0.0 | 0.00 | 0.00 | 0.00 | 93 | 1011.2 |
| 20260509122102 | 51 | 173 | 0.0 | 0.0 | 0.00 | 0.00 | 0.00 | 92 | 1011.5 |
| 20260509121558 | 51 | 163 | 0.0 | 0.0 | 0.00 | 0.00 | 0.00 | 92 | 1011.4 |
| 20260509121056 | 51 | 163 | 0.0 | 0.0 | 0.00 | 0.00 | 0.00 | 92 | 1011.2 |
| 20260509120554 | 51 | 163 | 0.0 | 0.0 | 0.00 | 0.00 | 0.00 | 92 | 1011.6 |
| 20260509120052 | 50 | 172 | 0.0 | 0.0 | 0.00 | 0.00 | 0.00 | 92 | 1011.7 |
| 20260509115548 | 50 | 172 | 0.0 | 0.0 | 0.00 | 0.00 | 0.00 | 92 | 1011.8 |
| 20260509115046 | 50 | 172 | 0.0 | 0.0 | 0.00 | 0.00 | 0.00 | 93 | 1011.5 |
| 20260509114544 | 50 | 167 | 0.0 | 0.0 | 0.00 | 0.00 | 0.00 | 93 | 1011.3 |
| 20260509114043 | 50 | 169 | 0.0 | 0.0 | 0.00 | 0.00 | 0.00 | 92 | 1011.3 |
| 20260509113541 | 50 | 164 | 0.0 | 0.0 | 0.00 | 0.00 | 0.00 | 92 | 1011.3 |
| 20260509113038 | 50 | 164 | 0.0 | 0.0 | 0.00 | 0.00 | 0.00 | 92 | 1011.4 |
| 20260509112534 | 50 | 221 | 0.0 | 0.0 | 0.00 | 0.00 | 0.00 | 93 | 1011.4 |
| 20260509112031 | 49 | 223 | 0.0 | 0.0 | 0.00 | 0.00 | 0.00 | 94 | 1011.6 |
| 20260509111529 | 49 | 223 | 0.0 | 0.0 | 0.00 | 0.00 | 0.00 | 95 | 1010.9 |
| 20260509111026 | 49 | 224 | 0.0 | 0.0 | 0.00 | 0.00 | 0.00 | 95 | 1010.8 |
| 20260509110522 | 49 | 224 | 0.0 | 0.0 | 0.00 | 0.00 | 0.00 | 95 | 1011.1 |
| 20260509110020 | 49 | 224 | 0.0 | 0.0 | 0.00 | 0.00 | 0.00 | 96 | 1010.9 |
| 20260509105518 | 49 | 226 | 0.0 | 0.0 | 0.00 | 0.00 | 0.00 | 96 | 1011.0 |
| 20260509105015 | 48 | 226 | 0.0 | 0.0 | 0.00 | 0.00 | 0.00 | 96 | 1010.9 |
| 20260509104512 | 48 | 226 | 0.0 | 0.0 | 0.00 | 0.00 | 0.00 | 96 | 1011.1 |
| 20260509104009 | 48 | 226 | 0.0 | 0.0 | 0.00 | 0.00 | 0.00 | 96 | 1011.1 |
| 20260509103507 | 48 | 226 | 0.0 | 0.0 | 0.00 | 0.00 | 0.00 | 96 | 1011.2 |
| 20260509103005 | 48 | 225 | 0.0 | 1.0 | 0.00 | 0.00 | 0.00 | 96 | 1011.3 |
| 20260509102502 | 48 | 200 | 0.0 | 0.0 | 0.00 | 0.00 | 0.00 | 97 | 1011.0 |
| 20260509101958 | 48 | 231 | 0.0 | 0.0 | 0.00 | 0.00 | 0.00 | 97 | 1010.9 |
| 20260509101454 | 48 | 224 | 0.0 | 0.0 | 0.00 | 0.00 | 0.00 | 97 | 1010.9 |
| 20260509100951 | 47 | 246 | 0.0 | 0.0 | 0.00 | 0.00 | 0.00 | 97 | 1011.2 |
| 20260509100449 | 47 | 204 | 1.0 | 1.0 | 0.00 | 0.00 | 0.00 | 98 | 1010.8 |
| 20260509095945 | 47 | 200 | 0.0 | 0.0 | 0.00 | 0.00 | 0.00 | 98 | 1010.4 |
| 20260509095442 | 47 | 200 | 0.0 | 0.0 | 0.00 | 0.00 | 0.00 | 98 | 1010.7 |
| 20260509094939 | 47 | 200 | 0.0 | 0.0 | 0.00 | 0.00 | 0.00 | 98 | 1010.8 |
| 20260509094436 | 47 | 200 | 0.0 | 0.0 | 0.00 | 0.00 | 0.00 | 98 | 1011.1 |
| 20260509093933 | 47 | 201 | 0.0 | 0.0 | 0.00 | 0.00 | 0.00 | 97 | 1011.1 |
| 20260509093431 | 47 | 201 | 0.0 | 0.0 | 0.00 | 0.00 | 0.00 | 97 | 1010.9 |
| 20260509092929 | 47 | 200 | 0.0 | 0.0 | 0.00 | 0.00 | 0.00 | 97 | 1011.1 |
| 20260509092426 | 47 | 201 | 0.0 | 0.0 | 0.00 | 0.00 | 0.00 | 97 | 1011.1 |
| 20260509091925 | 46 | 200 | 0.0 | 0.0 | 0.00 | 0.00 | 0.00 | 97 | 1011.1 |
| 20260509091421 | 47 | 200 | 0.0 | 0.0 | 0.00 | 0.00 | 0.00 | 98 | 1011.1 |
| 20260509090918 | 46 | 201 | 0.0 | 0.0 | 0.00 | 0.00 | 0.00 | 98 | 1011.4 |
| 20260509090416 | 46 | 200 | 0.0 | 0.0 | 0.00 | 0.00 | 0.00 | 98 | 1011.3 |
| 20260509085913 | 46 | 200 | 0.0 | 0.0 | 0.00 | 0.00 | 0.00 | 98 | 1011.3 |
| 20260509085410 | 46 | 201 | 0.0 | 0.0 | 0.00 | 0.00 | 0.00 | 98 | 1011.4 |
| 20260509084906 | 46 | 201 | 0.0 | 0.0 | 0.00 | 0.00 | 0.00 | 98 | 1011.4 |
| 20260509084403 | 46 | 201 | 0.0 | 0.0 | 0.00 | 0.00 | 0.00 | 98 | 1011.3 |
| 20260509083901 | 46 | 201 | 0.0 | 0.0 | 0.00 | 0.00 | 0.00 | 98 | 1011.4 |
| 20260509083358 | 46 | 201 | 0.0 | 0.0 | 0.00 | 0.00 | 0.00 | 98 | 1011.4 |
| 20260509082854 | 46 | 201 | 0.0 | 0.0 | 0.00 | 0.00 | 0.00 | 98 | 1011.6 |
| 20260509082351 | 46 | 201 | 0.0 | 0.0 | 0.00 | 0.00 | 0.00 | 98 | 1011.6 |
| 20260509081848 | 46 | 201 | 0.0 | 0.0 | 0.00 | 0.00 | 0.00 | 98 | 1011.6 |
| 20260509081346 | 46 | 201 | 0.0 | 0.0 | 0.00 | 0.00 | 0.00 | 98 | 1011.6 |
| 20260509080843 | 46 | 201 | 0.0 | 0.0 | 0.00 | 0.00 | 0.00 | 98 | 1011.8 |
| 20260509080341 | 46 | 201 | 0.0 | 0.0 | 0.00 | 0.00 | 0.00 | 98 | 1011.9 |
| 20260509075839 | 46 | 201 | 0.0 | 0.0 | 0.00 | 0.00 | 0.00 | 98 | 1011.9 |
| 20260509075336 | 46 | 201 | 0.0 | 0.0 | 0.00 | 0.00 | 0.00 | 97 | 1011.7 |
| 20260509074833 | 46 | 201 | 0.0 | 0.0 | 0.00 | 0.00 | 0.00 | 97 | 1011.7 |
| 20260509074331 | 46 | 201 | 0.0 | 0.0 | 0.00 | 0.00 | 0.00 | 97 | 1011.8 |
| 20260509073827 | 46 | 201 | 0.0 | 0.0 | 0.00 | 0.00 | 0.00 | 96 | 1011.8 |
| 20260509073323 | 46 | 201 | 0.0 | 0.0 | 0.00 | 0.00 | 0.00 | 96 | 1011.9 |
| 20260509072820 | 46 | 201 | 0.0 | 0.0 | 0.00 | 0.00 | 0.00 | 96 | 1011.8 |
| 20260509072316 | 46 | 201 | 0.0 | 0.0 | 0.00 | 0.00 | 0.00 | 95 | 1011.7 |
| 20260509071813 | 47 | 201 | 0.0 | 0.0 | 0.00 | 0.00 | 0.00 | 95 | 1011.9 |
| 20260509071310 | 47 | 201 | 0.0 | 0.0 | 0.00 | 0.00 | 0.00 | 95 | 1011.7 |
| 20260509070807 | 47 | 201 | 0.0 | 0.0 | 0.00 | 0.00 | 0.00 | 94 | 1011.8 |
| 20260509070304 | 48 | 201 | 0.0 | 0.0 | 0.00 | 0.00 | 0.00 | 94 | 1011.6 |
| 20260509065800 | 48 | 201 | 0.0 | 0.0 | 0.00 | 0.00 | 0.00 | 94 | 1011.8 |
| 20260509065256 | 48 | 201 | 0.0 | 0.0 | 0.00 | 0.00 | 0.00 | 93 | 1011.6 |
| 20260509064753 | 48 | 201 | 0.0 | 0.0 | 0.00 | 0.00 | 0.00 | 93 | 1011.7 |
| 20260509064250 | 49 | 202 | 0.0 | 0.0 | 0.00 | 0.00 | 0.00 | 93 | 1011.9 |
| 20260509063748 | 49 | 202 | 0.0 | 0.0 | 0.00 | 0.00 | 0.00 | 93 | 1011.9 |
| 20260509063244 | 49 | 202 | 0.0 | 0.0 | 0.00 | 0.00 | 0.00 | 93 | 1012.1 |
| 20260509062741 | 49 | 202 | 0.0 | 0.0 | 0.00 | 0.00 | 0.00 | 93 | 1011.9 |
| 20260509062238 | 49 | 202 | 0.0 | 0.0 | 0.00 | 0.00 | 0.00 | 93 | 1012.3 |
| 20260509061735 | 50 | 202 | 0.0 | 0.0 | 0.00 | 0.00 | 0.00 | 93 | 1012.1 |
| 20260509061233 | 50 | 201 | 0.0 | 0.0 | 0.00 | 0.00 | 0.00 | 93 | 1012.2 |
| 20260509060730 | 49 | 202 | 0.0 | 0.0 | 0.00 | 0.00 | 0.00 | 93 | 1012.3 |
| 20260509060226 | 50 | 202 | 0.0 | 0.0 | 0.00 | 0.00 | 0.00 | 93 | 1012.2 |
| 20260509055722 | 50 | 202 | 0.0 | 0.0 | 0.00 | 0.00 | 0.00 | 92 | 1012.0 |
| 20260509055218 | 50 | 202 | 0.0 | 0.0 | 0.00 | 0.00 | 0.00 | 92 | 1012.1 |
| 20260509054715 | 50 | 202 | 0.0 | 0.0 | 0.00 | 0.00 | 0.00 | 92 | 1011.9 |
| 20260509054212 | 50 | 202 | 0.0 | 0.0 | 0.00 | 0.00 | 0.00 | 91 | 1011.9 |
| 20260509053711 | 50 | 202 | 0.0 | 0.0 | 0.00 | 0.00 | 0.00 | 91 | 1011.9 |
| 20260509053207 | 50 | 202 | 0.0 | 0.0 | 0.00 | 0.00 | 0.00 | 90 | 1011.9 |
| 20260509052705 | 50 | 202 | 0.0 | 0.0 | 0.00 | 0.00 | 0.00 | 91 | 1012.1 |
| 20260509052202 | 50 | 202 | 0.0 | 0.0 | 0.00 | 0.00 | 0.00 | 91 | 1012.1 |
| 20260509051700 | 50 | 202 | 0.0 | 0.0 | 0.00 | 0.00 | 0.00 | 91 | 1012.4 |
| 20260509051157 | 50 | 202 | 0.0 | 0.0 | 0.00 | 0.00 | 0.00 | 93 | 1012.4 |
| 20260509050654 | 50 | 202 | 0.0 | 0.0 | 0.00 | 0.00 | 0.00 | 93 | 1012.1 |
| 20260509050150 | 50 | 202 | 0.0 | 0.0 | 0.00 | 0.00 | 0.00 | 93 | 1012.2 |
| 20260509045648 | 50 | 203 | 0.0 | 0.0 | 0.00 | 0.00 | 0.00 | 92 | 1012.2 |
| 20260509045145 | 50 | 203 | 0.0 | 0.0 | 0.00 | 0.00 | 0.00 | 92 | 1012.8 |
| 20260509044642 | 50 | 203 | 0.0 | 0.0 | 0.00 | 0.00 | 0.00 | 91 | 1012.9 |
| 20260509044139 | 50 | 203 | 0.0 | 0.0 | 0.00 | 0.00 | 0.00 | 91 | 1012.8 |
| 20260509043636 | 50 | 203 | 0.0 | 0.0 | 0.00 | 0.00 | 0.00 | 91 | 1012.6 |
| 20260509043131 | 50 | 203 | 0.0 | 0.0 | 0.00 | 0.00 | 0.00 | 91 | 1012.6 |
| 20260509042628 | 50 | 203 | 0.0 | 0.0 | 0.00 | 0.00 | 0.00 | 91 | 1012.4 |
| 20260509042124 | 50 | 203 | 0.0 | 0.0 | 0.00 | 0.00 | 0.00 | 91 | 1012.3 |
| 20260509041621 | 50 | 203 | 0.0 | 0.0 | 0.00 | 0.00 | 0.00 | 91 | 1012.5 |
| 20260509041118 | 50 | 202 | 0.0 | 0.0 | 0.00 | 0.00 | 0.00 | 90 | 1012.5 |
| 20260509040617 | 50 | 203 | 0.0 | 0.0 | 0.00 | 0.00 | 0.00 | 90 | 1012.4 |
| 20260509040114 | 50 | 202 | 0.0 | 0.0 | 0.00 | 0.00 | 0.00 | 90 | 1012.7 |
| 20260509035610 | 50 | 202 | 0.0 | 0.0 | 0.00 | 0.00 | 0.00 | 90 | 1012.7 |
| 20260509035107 | 49 | 202 | 0.0 | 0.0 | 0.00 | 0.00 | 0.00 | 90 | 1012.5 |
| 20260509034605 | 49 | 203 | 0.0 | 0.0 | 0.00 | 0.00 | 0.00 | 90 | 1012.4 |
| 20260509034101 | 49 | 203 | 0.0 | 1.0 | 0.00 | 0.00 | 0.00 | 90 | 1012.3 |
| 20260509033558 | 49 | 203 | 0.0 | 0.0 | 0.00 | 0.00 | 0.00 | 89 | 1012.2 |
| 20260509033055 | 50 | 203 | 0.0 | 0.0 | 0.00 | 0.00 | 0.00 | 89 | 1012.2 |
| 20260509032553 | 50 | 203 | 0.0 | 0.0 | 0.00 | 0.00 | 0.00 | 89 | 1012.6 |
| 20260509032050 | 50 | 203 | 0.0 | 0.0 | 0.00 | 0.00 | 0.00 | 89 | 1012.3 |
| 20260509031548 | 50 | 203 | 0.0 | 0.0 | 0.00 | 0.00 | 0.00 | 89 | 1012.3 |
| 20260509031044 | 50 | 203 | 0.0 | 0.0 | 0.00 | 0.00 | 0.00 | 89 | 1012.2 |
| 20260509030543 | 49 | 203 | 0.0 | 0.0 | 0.00 | 0.00 | 0.00 | 88 | 1012.6 |
| 20260509030039 | 49 | 203 | 0.0 | 0.0 | 0.00 | 0.00 | 0.00 | 89 | 1012.4 |
| 20260509025535 | 49 | 203 | 0.0 | 0.0 | 0.00 | 0.00 | 0.00 | 88 | 1012.4 |
| 20260509025031 | 49 | 203 | 0.0 | 0.0 | 0.00 | 0.00 | 0.00 | 88 | 1012.3 |
| 20260509024527 | 49 | 203 | 0.0 | 0.0 | 0.00 | 0.00 | 0.00 | 88 | 1012.5 |
| 20260509024023 | 49 | 203 | 0.0 | 0.0 | 0.00 | 0.00 | 0.00 | 88 | 1012.6 |
| 20260509023521 | 49 | 203 | 0.0 | 0.0 | 0.00 | 0.00 | 0.00 | 88 | 1012.3 |
| 20260509023018 | 49 | 203 | 0.0 | 0.0 | 0.00 | 0.00 | 0.00 | 89 | 1012.6 |
| 20260509022514 | 49 | 203 | 0.0 | 0.0 | 0.00 | 0.00 | 0.00 | 88 | 1012.4 |
| 20260509022012 | 49 | 203 | 0.0 | 0.0 | 0.00 | 0.00 | 0.00 | 88 | 1012.6 |
| 20260509021509 | 49 | 204 | 0.0 | 0.0 | 0.00 | 0.00 | 0.00 | 88 | 1012.8 |